Weather History for Mena, AR

Change the Weather History Date:

Monday, February 18, 2013

  Actual Average (KFSM) Record (KFSM)
Temperature  
Mean Temperature 57 °F -  
Max Temperature 68 °F 54 °F 79 °F (1986)
Min Temperature 46 °F 34 °F 1 °F (1910)
Degree Days  
Heating Degree Days 8    
Growing Degree Days 7 (Base 50)    
Moisture  
Dew Point 44 °F    
Average Humidity 64    
Maximum Humidity 88    
Minimum Humidity 44    
Precipitation  
Precipitation 0.33 in - - ()
Sea Level Pressure  
Sea Level Pressure 29.87 in    
Wind  
Wind Speed 12 mph (SW)    
Max Wind Speed 18 mph    
Max Gust Speed 33 mph    
Visibility 10 miles    
Events Rain , Thunderstorm    
Averages and records for this station are not official NWS values.
T = Trace of Precipitation, MM = Missing Value Source: NWS Daily Summary

Daily Weather History Graph

Daily Weather History Graph

Search for Another Location

Airport:

Trip Planner

Search our weather history database for the weather conditions in past years. The results will help you decide how hot, cold, wet, or windy it might be!

Date:

Astronomy

Feb. 18, 2013 Rise Set
Actual Time 6:58 AM CST 6:03 PM CST
Civil Twilight 6:33 AM CST 6:28 PM CST
Nautical Twilight 6:03 AM CST 6:58 PM CST
Astronomical Twilight 5:34 AM CST 7:27 PM CST
Moon 11:56 AM CST (2/18) 1:32 AM CST (2/18)
Length of Visible Light 11h 55m
Length of Day
11h 04m
First Quarter, 58% of the Moon is Illuminated
Feb 18
First Quarter
Feb 25
Full
Mar 4
Last Quarter
Mar 11
New
Mar 19
First Quarter

Hourly Weather History & Observations

Time (CST) Temp. Windchill Dew Point Humidity Pressure Visibility Wind Dir Wind Speed Gust Speed Precip Events Conditions
12:15 AM 55.4 °F - 33.8 °F 44% 29.96 in 10.0 mi South 11.5 mph 26.5 mph N/A   Clear
12:35 AM 55.4 °F - 35.6 °F 47% 29.96 in 10.0 mi SSW 12.7 mph 25.3 mph N/A   Clear
12:55 AM 55.4 °F - 35.6 °F 47% 29.95 in 10.0 mi SSW 12.7 mph 24.2 mph N/A   Clear
1:15 AM 55.4 °F - 37.4 °F 51% 29.95 in 10.0 mi SSW 10.4 mph 23.0 mph N/A   Scattered Clouds
1:35 AM 55.4 °F - 37.4 °F 51% 29.95 in 10.0 mi South 11.5 mph 24.2 mph N/A   Scattered Clouds
2:15 AM 55.4 °F - 39.2 °F 54% 29.93 in 10.0 mi SSW 12.7 mph 25.3 mph N/A   Mostly Cloudy
2:35 AM 55.4 °F - 41.0 °F 58% 29.93 in 10.0 mi South 10.4 mph 25.3 mph N/A   Scattered Clouds
2:55 AM 55.4 °F - 41.0 °F 58% 29.93 in 10.0 mi South 13.8 mph 25.3 mph N/A   Scattered Clouds
3:15 AM 55.4 °F - 42.8 °F 63% 29.93 in 10.0 mi South 12.7 mph 20.7 mph N/A   Scattered Clouds
3:35 AM 55.4 °F - 42.8 °F 63% 29.91 in 10.0 mi South 10.4 mph 19.6 mph N/A   Mostly Cloudy
3:55 AM 55.4 °F - 42.8 °F 63% 29.91 in 10.0 mi South 17.3 mph 27.6 mph N/A   Overcast
4:15 AM 55.4 °F - 44.6 °F 67% 29.90 in 10.0 mi South 9.2 mph 19.6 mph N/A   Overcast
4:35 AM 55.4 °F - 44.6 °F 67% 29.89 in 10.0 mi South 13.8 mph 24.2 mph N/A   Overcast
4:55 AM 55.4 °F - 44.6 °F 67% 29.89 in 10.0 mi South 10.4 mph 23.0 mph N/A   Overcast
5:35 AM 55.4 °F - 44.6 °F 67% 29.88 in 10.0 mi South 13.8 mph 25.3 mph N/A   Overcast
5:55 AM 55.4 °F - 44.6 °F 67% 29.86 in 10.0 mi South 12.7 mph 32.2 mph N/A   Overcast
6:15 AM 55.4 °F - 46.4 °F 72% 29.86 in 10.0 mi South 15.0 mph 28.8 mph N/A   Overcast
6:35 AM 55.4 °F - 46.4 °F 72% 29.86 in 10.0 mi South 15.0 mph 33.4 mph N/A   Overcast
6:55 AM 55.4 °F - 46.4 °F 72% 29.85 in 10.0 mi South 12.7 mph 24.2 mph N/A   Overcast
7:15 AM 55.4 °F - 46.4 °F 72% 29.85 in 10.0 mi South 16.1 mph 21.9 mph N/A   Overcast
7:35 AM 55.4 °F - 46.4 °F 72% 29.85 in 10.0 mi South 15.0 mph 26.5 mph N/A   Overcast
7:55 AM 55.4 °F - 46.4 °F 72% 29.86 in 10.0 mi South 12.7 mph 20.7 mph N/A   Overcast
8:15 AM 55.4 °F - 46.4 °F 72% 29.86 in 10.0 mi South 13.8 mph 23.0 mph N/A   Overcast
8:35 AM 55.4 °F - 48.2 °F 77% 29.86 in 10.0 mi South 15.0 mph 25.3 mph N/A   Light Drizzle
8:55 AM 55.4 °F - 48.2 °F 77% 29.86 in 10.0 mi South 9.2 mph 27.6 mph N/A   Light Drizzle
9:15 AM 55.4 °F - 50.0 °F 82% 29.86 in 10.0 mi South 10.4 mph 24.2 mph N/A   Drizzle
9:35 AM 55.4 °F - 50.0 °F 82% 29.86 in 10.0 mi South 12.7 mph 23.0 mph N/A   Light Drizzle
10:15 AM 55.4 °F - 50.0 °F 82% 29.83 in 10.0 mi South 9.2 mph 19.6 mph N/A   Light Drizzle
10:35 AM 57.2 °F - 50.0 °F 77% 29.82 in 10.0 mi South 12.7 mph 23.0 mph N/A   Light Drizzle
10:55 AM 57.2 °F - 51.8 °F 82% 29.81 in 7.0 mi South 13.8 mph 25.3 mph N/A Rain Rain
11:15 AM 59.0 °F - 51.8 °F 77% 29.81 in 10.0 mi South 13.8 mph 21.9 mph N/A   Light Drizzle
11:35 AM 59.0 °F - 51.8 °F 77% 29.80 in 10.0 mi South 9.2 mph 21.9 mph N/A   Drizzle
12:15 PM 59.0 °F - 51.8 °F 77% 29.77 in 10.0 mi South 16.1 mph 25.3 mph N/A   Overcast
12:35 PM 60.8 °F - 51.8 °F 72% 29.76 in 10.0 mi South 6.9 mph 23.0 mph N/A   Overcast
12:55 PM 60.8 °F - 53.6 °F 77% 29.76 in 7.0 mi SSW 11.5 mph 21.9 mph N/A Rain Light Rain
1:15 PM 60.8 °F - 53.6 °F 77% 29.74 in 10.0 mi South 12.7 mph 20.7 mph N/A   Overcast
1:35 PM 62.6 °F - 53.6 °F 72% 29.73 in 10.0 mi South 9.2 mph 20.7 mph N/A Rain Light Rain
1:55 PM 60.8 °F - 55.4 °F 82% 29.72 in 10.0 mi SSW 10.4 mph 18.4 mph N/A   Light Drizzle
2:15 PM 62.6 °F - 55.4 °F 77% 29.71 in 10.0 mi South 12.7 mph 18.4 mph N/A Rain Light Rain
2:35 PM 62.6 °F - 55.4 °F 77% 29.68 in 10.0 mi SSE 8.1 mph 16.1 mph N/A   Mostly Cloudy
2:55 PM 68.0 °F - 53.6 °F 60% 29.69 in 10.0 mi SSW 9.2 mph - N/A   Scattered Clouds
3:15 PM 64.4 °F - 53.6 °F 68% 29.68 in 10.0 mi SSW 8.1 mph 16.1 mph N/A Thunderstorm Scattered Clouds
3:35 PM 64.4 °F - 51.8 °F 64% 29.69 in 7.0 mi SW 17.3 mph 31.1 mph N/A Rain , Thunderstorm Heavy Thunderstorms and Rain
3:55 PM 60.8 °F - 55.4 °F 82% 29.69 in 5.0 mi WSW 8.1 mph - 0.01 in Rain , Thunderstorm Light Thunderstorms and Rain
4:15 PM 62.6 °F - 57.2 °F 82% 29.71 in 10.0 mi WSW 5.8 mph - 0.02 in   Mostly Cloudy
4:35 PM 62.6 °F - 59.0 °F 88% 29.72 in 10.0 mi NW 5.8 mph - 0.03 in   Mostly Cloudy
4:55 PM 62.6 °F - 55.4 °F 77% 29.74 in 10.0 mi WNW 8.1 mph - 0.05 in   Scattered Clouds
5:15 PM 62.6 °F - 46.4 °F 55% 29.76 in 10.0 mi WNW 16.1 mph 28.8 mph 0.01 in   Clear
5:35 PM 60.8 °F - 42.8 °F 52% 29.78 in 10.0 mi WNW 16.1 mph 23.0 mph 0.03 in   Clear
5:55 PM 59.0 °F - 37.4 °F 45% 29.81 in 10.0 mi WNW 16.1 mph 23.0 mph 0.04 in   Clear
6:15 PM 57.2 °F - 35.6 °F 44% 29.83 in 10.0 mi WNW 8.1 mph 23.0 mph N/A   Clear
6:55 PM 55.4 °F - 35.6 °F 47% 29.88 in 10.0 mi WNW 12.7 mph - 0.03 in   Clear
7:15 PM 55.4 °F - 35.6 °F 47% 29.90 in 10.0 mi NW 9.2 mph 21.9 mph 0.02 in   Clear
7:35 PM 53.6 °F - 35.6 °F 51% 29.91 in 10.0 mi NW 10.4 mph 18.4 mph 0.03 in   Clear
7:55 PM 53.6 °F - 33.8 °F 47% 29.93 in 10.0 mi WNW 13.8 mph 18.4 mph 0.03 in   Clear
8:15 PM 53.6 °F - 33.8 °F 47% 29.95 in 10.0 mi NW 15.0 mph 20.7 mph 0.02 in   Clear
8:35 PM 51.8 °F - 33.8 °F 50% 29.96 in 10.0 mi NW 8.1 mph - 0.03 in   Clear
8:55 PM 51.8 °F - 33.8 °F 50% 29.96 in 10.0 mi NW 18.4 mph 23.0 mph 0.05 in   Clear
9:15 PM 51.8 °F - 33.8 °F 50% 29.99 in 10.0 mi NW 10.4 mph 18.4 mph 0.01 in   Clear
9:35 PM 51.8 °F - 33.8 °F 50% 30.01 in 10.0 mi NW 10.4 mph 16.1 mph 0.03 in   Clear
9:55 PM 50.0 °F - 32.0 °F 50% 30.02 in 10.0 mi NW 9.2 mph - 0.04 in   Clear
10:15 PM 50.0 °F - 32.0 °F 50% 30.03 in 10.0 mi NW 15.0 mph 20.7 mph 0.02 in   Clear
10:35 PM 50.0 °F - 32.0 °F 50% 30.04 in 10.0 mi NW 13.8 mph 17.3 mph 0.03 in   Clear
10:55 PM 48.2 °F - 32.0 °F 54% 30.05 in 10.0 mi NW 5.8 mph 17.3 mph 0.05 in   Clear
11:15 PM 48.2 °F - 32.0 °F 54% 30.07 in 10.0 mi NNW 4.6 mph - 0.01 in   Clear
11:35 PM 46.4 °F 41.1 °F 32.0 °F 57% 30.08 in 10.0 mi NNW 11.5 mph 19.6 mph 0.01 in   Clear
11:55 PM 46.4 °F 41.5 °F 32.0 °F 57% 30.09 in 10.0 mi NW 10.4 mph 18.4 mph 0.03 in   Clear